Regional Weather Roundup
Issued by NWS

Home | Current Version | Previous Version | Graphics & Text | Print | Product List | Glossary On
Versions: 1 2 3 4 5 6 7 8 9 10 11 12 13 14 15 16 17 18 19 20 21 22 23 24 25 26 27 28 29 30 31 32 33 34 35 36 37 38 39 40 41 42 43 44 45 46 47 48 49 50
000
ASUS43 KFSD 231102
RWRSD

WEATHER ROUNDUP FOR SOUTH DAKOTA
NATIONAL WEATHER SERVICE SIOUX FALLS SD
500 AM CST SUN NOV 23 2014

NOTE: "FAIR" INDICATES FEW OR NO CLOUDS BELOW 12,000 FEET WITH NO
SIGNIFICANT WEATHER AND/OR OBSTRUCTIONS TO VISIBILITY.


SDZ001>005-009-010-012>017-231200-
NORTHWEST AND NORTH CENTRAL SOUTH DAKOTA

CITY           SKY/WX    TMP DP  RH WIND       PRES   REMARKS
BUFFALO          N/A     36  26  67 W32G41    29.47F
FAITH            N/A     35  28  75 W18       29.55R WCI  24
MOBRIDGE       CLOUDY    39  33  79 W9        29.48R
$$

SDZ012>016-024>037-041>051-057-063-072>074-231200-
SOUTHWEST AND SOUTH CENTRAL SOUTH DAKOTA

CITY           SKY/WX    TMP DP  RH WIND       PRES   REMARKS
RAPID CTY ARPT MOCLDY    34  21  59 NW15      29.62R WCI  24
PIERRE         CLOUDY    38  35  89 W9        29.52S
CUSTER         PTCLDY    28  13  53 VRB5      29.60R WCI  23
ELLSWORTH AFB  PTCLDY    35  21  57 NW14      29.61R WCI  26
PHILIP         CLOUDY    44  28  53 NW16      29.59R
PINE RIDGE     CLOUDY    35  31  85 W8        29.63R WCI  29
WINNER         CLOUDY    42  34  73 NW17      29.53R
$$

SDZ004>011-016>023-039-040-231200-
NORTHEAST SOUTH DAKOTA

CITY           SKY/WX    TMP DP  RH WIND       PRES   REMARKS
ABERDEEN       CLOUDY    40  34  79 W21G29    29.44R
WATERTOWN      MOCLDY    37  32  82 NW10      29.41R
SISSETON         N/A     41  35  79 NW8       29.39R
$$

SDZ017-020-022-023-036>040-048>070-231200-
SOUTHEAST SOUTH DAKOTA

CITY           SKY/WX    TMP DP  RH WIND       PRES   REMARKS
SIOUX FALLS    MOCLDY    41  40  96 VRB5      29.43R FOG
HURON          CLOUDY    35  32  88 NW7       29.47R WCI  29
CHAMBERLAIN    CLOUDY    40  36  84 N15G23    29.50S
MITCHELL       MOCLDY    36  32  85 NW12      29.47R
YANKTON        CLOUDY    45  39  81 SW6       29.44R
$$

ABBREVIATIONS USED IN REMARKS
   TC - TEMPERATURE IN CELSIUS
  WCI - WIND CHILL INDEX
   HX - HEAT INDEX
  VSB - VISIBILITY



USA.gov is the U.S. government's official web portal to all federal, state and local government web resources and services.